When you browse on this site, cookies collect data to enhance your experience and personalize the content and advertising you see.
Visit our Privacy Policy to learn more. By continuing to use the site, you agree to this use of cookies and data.
  • In Latvia
  • List of Countries
  • For 7 days
  • Water Temperature
  • Weather Map
  • Weather Widgets
  • user-avatar
    Login

    Hourly Weather Perth

    Today, 19 August, Monday

    Time Temperature Precipitation Wind Pressure Humidity
    00:00 +12°C° 0 mm 1 mps 774 mmHg 77%
    01:00 +11°C° 0 mm 1 mps 774 mmHg 77%
    02:00 +11°C° 0 mm 1 mps 774 mmHg 76%
    03:00 +10°C° 0 mm 2 mps 774 mmHg 76%
    04:00 +9°C° 0 mm 2 mps 774 mmHg 76%
    05:00 +9°C° 0 mm 2 mps 774 mmHg 76%
    06:00 +9°C° 0 mm 2 mps 775 mmHg 75%
    07:00 +9°C° 0 mm 2 mps 775 mmHg 74%
    08:00 +10°C° 0 mm 2 mps 775 mmHg 72%
    09:00 +13°C° 0 mm 2 mps 775 mmHg 66%
    10:00 +14°C° 0 mm 3 mps 775 mmHg 60%
    11:00 +17°C° 0 mm 3 mps 775 mmHg 54%
    12:00 +17°C° 0 mm 3 mps 774 mmHg 52%
    13:00 +18°C° 0 mm 3 mps 774 mmHg 49%
    14:00 +19°C° 0 mm 2 mps 773 mmHg 47%
    15:00 +19°C° 0 mm 2 mps 773 mmHg 51%
    16:00 +18°C° 0 mm 2 mps 773 mmHg 55%
    17:00 +19°C° 0 mm 1 mps 773 mmHg 59%
    18:00 +16°C° 0 mm 2 mps 774 mmHg 63%
    19:00 +15°C° 0 mm 2 mps 774 mmHg 68%
    20:00 +14°C° 0 mm 2 mps 775 mmHg 72%
    21:00 +13°C° 0 mm 2 mps 775 mmHg 72%
    22:00 +13°C° 0 mm 2 mps 775 mmHg 73%
    23:00 +12°C° 0 mm 2 mps 775 mmHg 73%

    Tomorrow, 20 August, Tuesday

    Time Temperature Precipitation Wind Pressure Humidity
    00:00 +12°C° 0 mm 2 mps 775 mmHg 73%
    01:00 +12°C° 0 mm 2 mps 774 mmHg 73%
    02:00 +10°C° 0 mm 2 mps 774 mmHg 72%
    03:00 +10°C° 0 mm 2 mps 774 mmHg 71%
    04:00 +10°C° 0 mm 3 mps 774 mmHg 70%
    05:00 +10°C° 0 mm 3 mps 774 mmHg 70%
    06:00 +10°C° 0 mm 3 mps 774 mmHg 69%
    07:00 +10°C° 0 mm 3 mps 775 mmHg 68%
    08:00 +10°C° 0 mm 3 mps 775 mmHg 67%
    09:00 +13°C° 0 mm 3 mps 775 mmHg 61%
    10:00 +16°C° 0 mm 3 mps 774 mmHg 54%
    11:00 +18°C° 0 mm 3 mps 774 mmHg 47%
    12:00 +19°C° 0 mm 3 mps 773 mmHg 47%
    13:00 +19°C° 0 mm 3 mps 773 mmHg 46%
    14:00 +20°C° 0 mm 3 mps 772 mmHg 45%
    15:00 +20°C° 0 mm 3 mps 772 mmHg 50%
    16:00 +19°C° 0 mm 2 mps 772 mmHg 54%
    17:00 +19°C° 0 mm 2 mps 772 mmHg 59%
    18:00 +18°C° 0 mm 2 mps 772 mmHg 62%
    19:00 +16°C° 0 mm 2 mps 772 mmHg 65%
    20:00 +14°C° 0 mm 3 mps 772 mmHg 68%
    21:00 +13°C° 0 mm 3 mps 771 mmHg 66%
    22:00 +13°C° 0 mm 3 mps 771 mmHg 64%
    23:00 +12°C° 0 mm 3 mps 771 mmHg 62%

    Day after tomorrow, 21 August, Wednesday

    Time Temperature Precipitation Wind Pressure Humidity
    00:00 +12°C° 0 mm 3 mps 771 mmHg 60%
    01:00 +12°C° 0 mm 4 mps 770 mmHg 58%
    02:00 +12°C° 0 mm 4 mps 770 mmHg 56%
    03:00 +11°C° 0 mm 4 mps 770 mmHg 55%
    04:00 +11°C° 0 mm 4 mps 769 mmHg 54%
    05:00 +11°C° 0 mm 4 mps 769 mmHg 52%
    06:00 +11°C° 0 mm 4 mps 769 mmHg 52%
    07:00 +12°C° 0 mm 5 mps 769 mmHg 51%
    08:00 +12°C° 0 mm 5 mps 769 mmHg 51%
    09:00 +14°C° 0 mm 5 mps 769 mmHg 49%
    10:00 +16°C° 0 mm 5 mps 769 mmHg 46%
    11:00 +19°C° 0 mm 5 mps 769 mmHg 44%
    12:00 +20°C° 0 mm 5 mps 768 mmHg 44%
    13:00 +21°C° 0 mm 5 mps 767 mmHg 44%
    14:00 +21°C° 0 mm 4 mps 766 mmHg 44%
    15:00 +21°C° 0 mm 4 mps 766 mmHg 48%
    16:00 +20°C° 0 mm 4 mps 765 mmHg 51%
    17:00 +20°C° 0 mm 3 mps 765 mmHg 55%
    18:00 +19°C° 0 mm 3 mps 765 mmHg 57%
    19:00 +17°C° 0 mm 3 mps 765 mmHg 59%
    20:00 +16°C° 0 mm 3 mps 765 mmHg 62%
    21:00 +14°C° 0 mm 3 mps 765 mmHg 61%
    22:00 +14°C° 0 mm 3 mps 765 mmHg 60%
    23:00 +14°C° 0 mm 3 mps 764 mmHg 59%

    22 August, Thursday

    Time Temperature Precipitation Wind Pressure Humidity
    00:00 +13°C° 0 mm 3 mps 764 mmHg 55%
    01:00 +13°C° 0 mm 3 mps 764 mmHg 50%
    02:00 +13°C° 0 mm 4 mps 763 mmHg 45%
    03:00 +13°C° 0 mm 3 mps 763 mmHg 43%
    04:00 +12°C° 0 mm 3 mps 763 mmHg 42%
    05:00 +12°C° 0 mm 3 mps 763 mmHg 40%
    06:00 +12°C° 0 mm 3 mps 763 mmHg 42%
    07:00 +13°C° 0 mm 3 mps 763 mmHg 44%
    08:00 +13°C° 0 mm 3 mps 763 mmHg 45%
    09:00 +15°C° 0 mm 4 mps 762 mmHg 44%
    10:00 +18°C° 0 mm 4 mps 762 mmHg 43%
    11:00 +20°C° 0 mm 4 mps 762 mmHg 42%
    12:00 +20°C° 0 mm 5 mps 761 mmHg 44%
    13:00 +21°C° 0 mm 5 mps 761 mmHg 46%
    14:00 +22°C° 0 mm 6 mps 760 mmHg 48%
    15:00 +21°C° 0.5 mm 5 mps 760 mmHg 57%
    16:00 +20°C° 0.5 mm 5 mps 760 mmHg 66%
    17:00 +19°C° 0.5 mm 4 mps 760 mmHg 75%
    18:00 +18°C° 0.5 mm 4 mps 760 mmHg 78%
    19:00 +17°C° 0.5 mm 4 mps 761 mmHg 81%
    20:00 +15°C° 0.5 mm 4 mps 761 mmHg 84%
    21:00 +15°C° 1.1 mm 5 mps 761 mmHg 86%
    22:00 +14°C° 1.1 mm 5 mps 762 mmHg 88%
    23:00 +13°C° 1.1 mm 6 mps 762 mmHg 89%

    23 August, Friday

    Time Temperature Precipitation Wind Pressure Humidity
    00:00 +13°C° 0.9 mm 5 mps 762 mmHg 87%
    01:00 +12°C° 0.9 mm 5 mps 762 mmHg 85%
    02:00 +12°C° 0.9 mm 5 mps 763 mmHg 82%
    03:00 +11°C° 0.1 mm 4 mps 763 mmHg 81%
    04:00 +11°C° 0.1 mm 4 mps 763 mmHg 79%
    05:00 +10°C° 0.1 mm 3 mps 764 mmHg 77%
    06:00 +10°C° 0.1 mm 3 mps 764 mmHg 76%
    07:00 +10°C° 0.1 mm 2 mps 765 mmHg 75%
    08:00 +11°C° 0.1 mm 1 mps 766 mmHg 74%
    09:00 +13°C° 0 mm 2 mps 766 mmHg 66%
    10:00 +14°C° 0 mm 2 mps 766 mmHg 59%
    11:00 +15°C° 0 mm 2 mps 766 mmHg 52%
    12:00 +16°C° 0 mm 2 mps 766 mmHg 49%
    13:00 +17°C° 0 mm 2 mps 766 mmHg 47%
    14:00 +17°C° 0 mm 2 mps 766 mmHg 45%
    15:00 +17°C° 0 mm 2 mps 766 mmHg 49%
    16:00 +16°C° 0 mm 2 mps 767 mmHg 54%
    17:00 +16°C° 0 mm 2 mps 767 mmHg 59%
    18:00 +15°C° 0 mm 2 mps 768 mmHg 62%
    19:00 +14°C° 0 mm 2 mps 768 mmHg 65%
    20:00 +11°C° 0 mm 3 mps 769 mmHg 69%
    21:00 +11°C° 0 mm 4 mps 769 mmHg 70%
    22:00 +9°C° 0 mm 5 mps 769 mmHg 72%
    23:00 +9°C° 0 mm 6 mps 770 mmHg 74%

    24 August, Saturday

    Time Temperature Precipitation Wind Pressure Humidity
    00:00 +8°C° 0 mm 6 mps 770 mmHg 72%
    01:00 +8°C° 0 mm 6 mps 770 mmHg 70%
    02:00 +7°C° 0 mm 6 mps 770 mmHg 68%
    03:00 +7°C° 0 mm 6 mps 770 mmHg 67%
    04:00 +5°C° 0 mm 6 mps 770 mmHg 67%
    05:00 +6°C° 0 mm 5 mps 770 mmHg 67%
    06:00 +5°C° 0 mm 6 mps 770 mmHg 66%
    07:00 +7°C° 0 mm 6 mps 771 mmHg 66%
    08:00 +7°C° 0 mm 6 mps 771 mmHg 65%
    09:00 +8°C° 0 mm 5 mps 771 mmHg 61%
    10:00 +10°C° 0 mm 5 mps 771 mmHg 57%
    11:00 +13°C° 0 mm 5 mps 770 mmHg 52%
    12:00 +14°C° 0 mm 4 mps 770 mmHg 50%
    13:00 +14°C° 0 mm 3 mps 769 mmHg 47%
    14:00 +16°C° 0 mm 3 mps 768 mmHg 45%
    15:00 +16°C° 0 mm 3 mps 768 mmHg 47%
    16:00 +16°C° 0 mm 2 mps 768 mmHg 50%
    17:00 +15°C° 0 mm 2 mps 768 mmHg 52%
    18:00 +14°C° 0 mm 2 mps 768 mmHg 54%
    19:00 +12°C° 0 mm 3 mps 769 mmHg 56%
    20:00 +10°C° 0 mm 3 mps 769 mmHg 58%
    21:00 +10°C° 0 mm 3 mps 769 mmHg 58%
    22:00 +10°C° 0 mm 3 mps 769 mmHg 58%
    23:00 +9°C° 0 mm 3 mps 769 mmHg 58%
    Show more